This is the latest recevied weather packets stored in our database for station/object PA5MB-15. If no packets are shown the sender has not sent any weather packets the latest 1 day(s).
| Time | Temp. | Humidity | Pressure | Rain* | Wind** | Luminosity | Snow |
|---|---|---|---|---|---|---|---|
| 1777963521 | 10° C | 98% | 1012.7 hPa | 0 mm | 0.89 m/s, 5° | 7 W/m² | - |
| 1777963239 | 10° C | 98% | 1012.8 hPa | 0 mm | 0.89 m/s, 340° | 7 W/m² | - |
| 1777962934 | 10° C | 98% | 1012.8 hPa | 0 mm | 1.34 m/s, 358° | 6 W/m² | - |
| 1777962631 | 10° C | 98% | 1012.7 hPa | 0 mm | 1.34 m/s, 9° | 6 W/m² | - |
| 1777962324 | 10° C | 98% | 1012.7 hPa | 0 mm | 1.34 m/s, 1° | 5 W/m² | - |
| 1777962032 | 10° C | 98% | 1012.7 hPa | 0 mm | 0.89 m/s, 12° | 5 W/m² | - |
| 1777961730 | 10° C | 98% | 1012.8 hPa | 0 mm | 0.89 m/s, 13° | 6 W/m² | - |
| 1777961430 | 10° C | 98% | 1012.8 hPa | 0 mm | 1.34 m/s, 6° | 6 W/m² | - |
| 1777961131 | 10° C | 98% | 1012.9 hPa | 0 mm | 1.34 m/s, 352° | 4 W/m² | - |
| 1777960833 | 10° C | 98% | 1012.9 hPa | 0 mm | 1.34 m/s, 0° | 4 W/m² | - |
| 1777960529 | 10° C | 98% | 1012.9 hPa | 0 mm | 1.34 m/s, 356° | 3 W/m² | - |
| 1777960243 | 10.56° C | 98% | 1012.9 hPa | 0 mm | 1.34 m/s, 350° | 3 W/m² | - |
| 1777959942 | 10.56° C | 98% | 1012.9 hPa | 0 mm | 1.34 m/s, 354° | 2 W/m² | - |
| 1777959633 | 10.56° C | 98% | 1013 hPa | 0 mm | 0.89 m/s, 351° | 2 W/m² | - |
| 1777959333 | 10.56° C | 98% | 1012.9 hPa | 0 mm | 0.89 m/s, 10° | 2 W/m² | - |
| 1777959029 | 10.56° C | 97% | 1012.9 hPa | 0 mm | 0.45 m/s, 329° | 2 W/m² | - |
| 1777958731 | 10.56° C | 97% | 1012.9 hPa | 0 mm | 0.45 m/s, 337° | 2 W/m² | - |
| 1777958433 | 10.56° C | 97% | 1012.9 hPa | 0 mm | 0.89 m/s, 355° | 2 W/m² | - |
| 1777958135 | 10.56° C | 96% | 1012.9 hPa | 0 mm | 0.89 m/s, 0° | 1 W/m² | - |
| 1777957822 | 10.56° C | 96% | 1012.9 hPa | 0 mm | 0.45 m/s, 8° | 1 W/m² | - |
| 1777957544 | 10.56° C | 96% | 1012.8 hPa | 0 mm | 0.45 m/s, 339° | 1 W/m² | - |
| 1777957233 | 10.56° C | 96% | 1012.8 hPa | 0 mm | 1.34 m/s, 1° | 1 W/m² | - |
| 1777956933 | 10.56° C | 96% | 1012.8 hPa | 0 mm | 0 m/s | 1 W/m² | - |
| 1777956624 | 10.56° C | 96% | 1012.7 hPa | 0 mm | 0 m/s | 1 W/m² | - |
| 1777956331 | 10.56° C | 96% | 1012.6 hPa | 0 mm | 0.45 m/s, 31° | 1 W/m² | - |
* Rain latest hour (hover to see other rain measurements)
** Current wind speed in m/s (hover to see current wind gust speed)